Torna al catalogo

SL-8 DEB

AttivoPO
NORAD 24818·DEBRIS·🇷🇺 Russia

Lanciato Sep 13, 1977 da Plesetsk Cosmodrome

Loading…

Prossimi Passaggi (prossime 24 ore)

TLE

AggiornatoSource: Space-Track

Epoca: Sep 14, 2026, 08:45 UTC

1 24818U 77087C   26257.36522950  .00000309  00000-0  27028-3 0  9990
2 24818  82.9690  26.9754 0033125 164.3915 224.5270 13.82324689461958

Traccia SL-8 DEB in tempo reale con AllMySat

Download on the App Store